Date,TemperatureHighF,TemperatureAvgF,TemperatureLowF,DewpointHighF,DewpointAvgF,DewpointLowF,HumidityHigh,HumidityAvg,HumidityLow,PressureMaxIn,PressureMinIn,WindSpeedMaxMPH,WindSpeedAvgMPH,GustSpeedMaxMPH,PrecipitationSumIn
2013-1-1,32.4,31.0,23.2,31.1,29.2,17.7,99,93,80,29.90,28.67,6,2,7,0.00
2013-1-2,34.2,23.0,15.0,17.9,13.9,10.9,89,68,45,30.09,28.76,9,2,9,0.00
2013-1-3,35.6,24.5,12.0,20.7,15.5,9.3,95,69,54,30.09,28.82,10,3,15,0.00
2013-1-4,34.2,29.4,27.5,22.7,20.4,18.2,78,69,56,30.00,28.84,10,5,15,0.00
2013-1-5,38.8,31.0,26.4,25.0,21.8,17.6,78,69,56,30.00,28.86,9,3,12,0.00
2013-1-6,55.4,34.4,34.0,31.8,29.5,22.6,89,82,60,30.02,21.58,10,5,10,0.52
2013-1-7,37.0,28.6,23.2,28.6,24.0,20.6,92,83,61,30.20,30.02,7,2,8,0.00
2013-1-8,48.3,32.1,19.8,30.5,24.9,18.4,98,77,50,30.18,30.07,7,0,7,0.00
2013-1-9,47.7,38.5,29.7,41.8,32.7,25.0,94,80,66,30.29,30.05,10,3,10,0.00
2013-1-10,44.1,36.8,28.9,31.8,29.3,26.4,94,75,60,30.42,24.33,6,1,6,0.00
2013-1-11,51.8,47.0,39.7,51.5,42.2,28.1,99,84,62,30.11,29.81,8,1,8,0.14
2013-1-12,63.0,55.5,48.7,57.9,53.7,48.4,99,94,78,29.93,29.80,7,1,7,0.01
2013-1-13,70.2,60.6,55.0,57.3,54.5,52.4,99,81,63,29.81,29.71,9,2,9,0.13
2013-1-14,56.8,40.3,32.2,56.5,34.3,25.0,99,80,56,30.17,29.73,15,3,15,0.09
2013-1-15,32.2,29.7,25.7,30.7,24.5,22.3,99,81,73,30.18,29.88,11,4,11,0.16
2013-1-16,34.0,32.3,30.9,33.7,32.0,30.5,99,99,94,29.88,29.70,15,6,15,0.35
2013-1-17,35.2,32.2,30.4,30.7,28.9,27.7,96,88,79,30.00,29.82,23,8,23,0.03
2013-1-18,35.1,26.8,18.7,28.1,15.2,7.3,95,62,44,30.30,29.94,29,11,29,0.00
2013-1-19,55.4,42.8,28.2,24.4,19.1,13.0,61,39,26,30.08,29.69,30,12,30,0.02
2013-1-20,46.9,35.6,23.5,31.1,19.7,12.5,65,53,41,29.96,29.64,34,17,35,0.00
2013-1-21,27.3,21.4,12.2,21.5,13.1,0.0,97,70,52,29.94,29.73,33,12,33,0.00
2013-1-22,15.3,9.3,5.9,2.7,-0.9,-4.4,76,63,47,30.08,29.85,28,16,28,0.00
2013-1-23,16.0,10.9,3.2,11.1,1.8,-1.4,88,67,49,30.11,29.88,20,8,20,0.00
2013-1-24,22.1,15.6,9.9,12.6,6.4,-3.8,94,69,34,30.34,29.86,26,7,26,0.00
2013-1-25,21.9,14.7,9.9,19.5,10.7,1.9,98,84,66,30.33,29.84,14,4,14,0.00
2013-1-26,26.8,22.0,17.8,24.7,19.7,14.7,99,91,77,30.25,29.90,18,7,18,0.00
2013-1-27,32.0,23.1,12.0,21.4,16.1,11.6,99,76,55,30.33,30.12,9,4,9,0.05
2013-1-28,49.8,40.5,29.5,49.5,39.2,19.8,99,95,63,30.13,29.85,16,7,16,0.58
2013-1-29,67.1,56.5,49.8,56.7,52.2,49.5,99,87,67,29.89,29.65,14,6,14,0.01
2013-1-30,84.9,32.4,-40.0,75.2,27.1,-41.4,99,84,61,29.65,29.10,50,8,50,1.01
2013-1-31,46.0,27.9,21.0,45.7,23.2,12.4,99,83,55,29.67,29.08,43,22,43,0.02